Hourly Data Report for October 09, 2014

All times are specified in Local Standard Time (LST). Add 1 hour to adjust for Daylight Saving Time where and when it is observed.

WINNIPEG A CS
MANITOBA

49°55'00.000" N
97°14'58.000" W
238.70 m
502S001
71849
XWG

Download Data

Hourly Data (October 2014)
Hourly Data Report for October 9, 2014
Temp Definition
°C
Dew Point Temp Definition
°C
Rel Hum Definition
%
Wind Dir Definition
10's deg

Wind Spd Definition
km/h
Visibility Definition
km
Stn Press Definition
kPa
Hmdx Definition


Wind Chill Definition


Weather Definition


TIME
00:00 -2.2 -3.2 93 31 15   99.18   -7 LegendNANA
01:00 -2.3 -3.1 94 28 15   99.18   -7 LegendNANA
02:00 -1.5 -2.5 93 28 14   99.22   -6 LegendNANA
03:00 -1.4 -2.5 92 31 14   99.24   -6 LegendNANA
04:00 -2.6 -3.6 93 28 10   99.29   -6 LegendNANA
05:00 -1.6 -2.0 98 31 4   99.35   -3 LegendNANA
06:00 -0.5 -1.0 96 29 10   99.37   -4 LegendNANA
07:00 0.7 -0.1 95 30 13   99.40     LegendNANA
08:00 2.9 1.3 89 31 17   99.43     LegendNANA
09:00 4.0 1.9 86 31 17   99.46     LegendNANA
10:00 5.6 2.7 81 31 21   99.50     LegendNANA
11:00 6.3 1.0 69 31 19   99.52     LegendNANA
12:00 7.0 1.0 66 30 18   99.56     LegendNANA
13:00 7.1 0.0 61 31 22   99.56     LegendNANA
14:00 7.3 -0.1 59 30 23   99.54     LegendNANA
15:00 5.9 -1.1 61 30 24   99.55     LegendNANA
16:00 5.8 -1.0 61 30 23   99.56     LegendNANA
17:00 5.3 -0.6 66 30 19   99.57     LegendNANA
18:00 4.8 -1.2 65 32 11   99.57     LegendNANA
19:00 0.8 -3.0 75 32 12   99.59     LegendNANA
20:00 -2.5 -4.2 88 30 14   99.60   -7 LegendNANA
21:00 -1.2 -3.0 88 31 6   99.59   -3 LegendNANA
22:00 -2.3 -3.8 90 28 14   99.59   -7 LegendNANA
23:00 -3.8 -5.1 91 28 10   99.61   -8 LegendNANA

Notes on Data Quality.

Legend

  • E = Estimated
  • M = Missing
  • NA = Not Available
  • ‡ = Partner data that is not subject to review by the National Climate Archives
Date modified: